Bodega Marine Reserve, California Weather observations

Data are for 10 minute period ending at time listed.
 Day   Time   Solar   Ave.   Ave.  Ave.  Vector  Max.   Baro.   Total    
  of    of     Rad.   Air    Rel.  Wind   Wind   Wind  Press.  Precip.   
Year   Day            Temp.  Hum.  Speed  Dir.   Gust                    
2017   (PST)  Kw/m2    F      %     mph   deg.    mph    mb.     in.     
-------------------------------------------------------------------------
 200   11:10   0.85   36.3     1   20.4   306    26.7   1014.6    0.00 
 200   11:20   0.85   37.8     1   20.2   306    27.4   1014.6    0.00 
 200   11:30   0.85   39.5     1   21.3   304    30.1   1014.2    0.00 
 200   11:40   0.87   41.8    27   21.0   306    26.7   1014.2    0.00 
 200   11:50   0.87   43.7   100   19.6   306    25.2   1014.2    0.00 
 200   12:00   0.87   46.0    92   19.6   306    25.2   1014.2    0.00 
 200   12:10   0.87   47.7    84   20.4   304    26.7   1014.2    0.00 
 200   12:20   0.88   48.4    82   19.8   305    25.8   1014.2    0.00 
 200   12:30   0.88   49.5    79   20.1   304    26.8   1014.2    0.00 
 200   12:40   0.88   49.9    78   20.1   307    25.5   1014.2    0.00 
 200   12:50   0.88   50.7    77   20.2   308    26.4   1014.2    0.00 
 200   13:00   0.88   51.4    75   20.7   310    27.2   1013.9    0.00 
 200   13:10   0.80   51.4    75   22.4   309    28.6   1013.9    0.00 
 200   13:20   0.84   52.2    74   21.5   312    27.2   1013.9    0.00 
 200   13:30   0.85   53.1    72   18.7   314    24.1   1013.9    0.00 
 200   13:40   0.79   53.9    71   19.9   318    30.6   1013.9    0.00 
 200   13:50   0.57   53.5    72   20.1   313    28.4   1013.9    0.00 
 200   14:00   0.57   54.0    71   19.8   311    25.6   1013.5    0.00 
 200   14:10   0.74   54.0    71   21.2   310    28.7   1013.5    0.00 
 200   14:20   0.79   54.0    70   21.8   311    29.2   1013.5    0.00 
 200   14:30   0.25   53.8    71   22.5   310    29.4   1013.5    0.00 
 200   14:40   0.05   53.4    72   22.8   314    28.4   1013.5    0.00 
 200   14:50   0.06   53.6    71   21.2   318    28.3   1013.5    0.00 
 200   15:00   0.20   53.8    71   21.2   316    28.5   1013.2    0.00 
 200   15:10   0.28   53.9    71   22.5   316    32.5   1013.2    0.00 
 200   15:20   0.46   53.7    71   22.0   318    30.2   1013.2    0.00 
 200   15:30   0.52   54.0    70   21.4   316    29.2   1012.9    0.00 
 200   15:40   0.53   53.7    71   23.2   314    31.6   1012.9    0.00 
 200   15:50   0.60   53.5    72   23.4   317    30.8   1012.9    0.00 
 200   16:00   0.56   53.4    72   23.3   316    33.6   1012.9    0.00 
 200   16:10   0.43   53.2    72   23.5   317    30.2   1012.5    0.00 
 200   16:20   0.13   53.6    72   21.4   317    30.6   1012.5    0.00 
 200   16:30   0.29   53.5    72   21.5   318    28.4   1012.5    0.00 
 200   16:40   0.45   53.5    72   21.4   317    29.1   1012.5    0.00 
 200   16:50   0.43   53.3    72   22.8   316    30.5   1012.2    0.00 
 200   17:00   0.40   53.1    72   23.0   317    31.4   1012.2    0.00 
 200   17:10   0.37   52.9    73   22.8   319    33.7   1011.9    0.00 
 200   17:20   0.34   52.6    74   23.7   317    30.3   1011.9    0.00 
 200   17:30   0.31   52.3    74   23.2   317    30.0   1011.9    0.00 
 200   17:40   0.28   52.1    74   22.5   318    31.9   1011.9    0.00 
 200   17:50   0.25   52.0    75   21.5   319    30.4   1011.9    0.00 
 200   18:00   0.22   51.7    75   21.2   321    31.5   1011.9    0.00 
 200   18:10   0.19   51.6    76   21.4   324    30.6   1011.9    0.00 
 200   18:20   0.16   51.3    76   20.8   323    27.8   1011.9    0.00 
 200   18:30   0.13   51.0    77   21.0   325    30.3   1011.9    0.00 
 200   18:40   0.10   50.6    78   21.0   323    26.1   1011.9    0.00 
 200   18:50   0.08   50.2    79   20.5   324    28.6   1011.9    0.00 
 200   19:00   0.06   49.7    81   21.1   324    28.6   1011.9    0.00 
 200   19:10   0.04   49.3    82   20.7   325    29.9   1011.9    0.00 
 200   19:20   0.02   48.8    82   20.4   324    26.7   1011.9    0.00 
 200   19:30   0.01   48.3    83   21.0   323    27.8   1011.9    0.00 
 200   19:40   0.00   47.9    84   21.1   323    28.1   1011.9    0.00 
 200   19:50   0.00   47.5    85   21.6   316    29.1   1011.5    0.00 
 200   20:00   0.00   47.3    85   22.6   313    29.4   1011.9    0.00 
 200   20:10   0.00   47.0    86   22.1   313    28.6   1011.9    0.00 
 200   20:20   0.00   46.7    86   19.9   316    30.8   1012.2    0.00 
 200   20:30   0.00   46.4    87   20.2   319    26.3   1012.2    0.00 
 200   20:40   0.00   46.1    87   20.2   318    25.6   1012.2    0.00 
 200   20:50   0.00   45.9    88   19.0   320    24.3   1012.5    0.00 
 200   21:00   0.00   45.5    89   18.0   321    23.0   1012.5    0.00 
 200   21:10   0.00   45.3    90   18.4   319    24.8   1012.5    0.00 
 200   21:20   0.00   45.0    91   19.9   316    24.8   1012.5    0.00 
 200   21:30   0.00   44.7    92   20.5   316    25.9   1012.5    0.00 
 200   21:40   0.00   44.4    93   15.9   322    21.9   1012.9    0.00 
 200   21:50   0.00   44.0    94   14.2   322    19.7   1012.9    0.00 
 200   22:00   0.00   43.8    95   15.2   319    19.5   1012.9    0.00 
 200   22:10   0.00   43.6    96   15.7   318    22.0   1012.9    0.00 
 200   22:20   0.00   43.4    98   16.2   319    20.3   1012.9    0.00 
 200   22:30   0.00   43.1    99   16.6   317    22.1   1012.5    0.00 
 200   22:40   0.00   42.8   100   16.2   315    21.3   1012.5    0.00 
 200   22:50   0.00   42.4   100   15.8   315    23.2   1012.5    0.00 
 200   23:00   0.00   42.0   100   16.2   312    21.1   1012.5    0.00 
 200   23:10   0.00   41.6   100   16.0   314    23.2   1012.5    0.00 
 200   23:20   0.00   41.2   100   15.8   316    20.1   1012.5    0.00 
 200   23:30   0.00   40.7   100   17.0   312    22.8   1012.5    0.00 
 200   23:40   0.00   40.3   100   17.9   312    23.5   1012.5    0.00 
 200   23:50   0.00   39.8   100   17.0   314    22.6   1012.5    0.00 
 201    0:00   0.00   39.3   100   16.3   316    21.8   1012.5    0.00 
 201    0:10   0.00   38.9   100   16.4   318    21.2   1012.5    0.00 
 201    0:20   0.00   38.4   100   17.0   317    22.6   1012.5    0.00 
 201    0:30   0.00   38.0    90   14.6   319    22.1   1012.5    0.00 
 201    0:40   0.00   37.6     6   13.6   321    18.5   1012.5    0.00 
 201    0:50   0.00   37.2     1   13.5   321    18.1   1012.5    0.00 
 201    1:00   0.00   36.8     1   14.3   319    17.8   1012.5    0.00 
 201    1:10   0.00   36.3     1   14.8   317    19.3   1012.5    0.00 
 201    1:20   0.00   35.9     1   15.2   313    18.9   1012.5    0.00 
 201    1:30   0.00   35.5     1   15.6   314    19.1   1012.5    0.00 
 201    1:40   0.00   35.0     0   13.9   315    18.6   1012.5    0.00 
 201    1:50   0.00   34.6     0   14.8   314    18.4   1012.5    0.00 
 201    2:00   0.00   34.2     0   15.7   311    20.2   1012.2    0.00 
 201    2:10   0.00   33.7     0   16.5   310    21.3   1012.2    0.00 
 201    2:20   0.00   33.2     0   16.6   310    20.6   1012.5    0.00 
 201    2:30   0.00   32.7     0   14.8   312    18.7   1012.5    0.00 
 201    2:40   0.00   32.2     0   14.8   312    19.2   1012.5    0.00 
 201    2:50   0.00   31.7     0   16.0   312    21.0   1012.2    0.00 
 201    3:00   0.00   31.2     0   15.4   317    18.6   1012.2    0.00 
 201    3:10   0.00   30.8     0   15.1   318    19.3   1012.5    0.00 
 201    3:20   0.00   30.4     0   15.8   316    20.2   1012.2    0.00 
 201    3:30   0.00   30.0     0   15.8   315    21.1   1012.5    0.00 
 201    3:40   0.00   29.5     0   16.3   317    21.0   1012.5    0.00 
 201    3:50   0.00   29.1     0   16.2   315    20.8   1012.5    0.00 
 201    4:00   0.00   28.7     0   14.6   318    19.3   1012.5    0.00 
 201    4:10   0.00   28.3     0   14.0   323    18.2   1012.9    0.00 
 201    4:20   0.00   28.0     0   14.4   320    18.3   1012.9    0.00 
 201    4:30   0.00   27.7     0   13.2   318    17.4   1012.9    0.00 
 201    4:40   0.00   27.3     0   12.9   319    17.5   1013.2    0.00 
 201    4:50   0.00   27.0     0   13.9   318    18.9   1013.2    0.00 
 201    5:00   0.00   26.7     0   14.1   318    18.6   1013.2    0.00 
 201    5:10   0.00   26.3     0   16.4   312    23.2   1013.2    0.00 
 201    5:20   0.01   25.9     0   20.0   308    24.6   1013.2    0.00 
 201    5:30   0.02   25.5     0   19.9   309    24.6   1013.2    0.00 
 201    5:40   0.04   25.1     0   16.6   307    23.6   1013.5    0.00 
 201    5:50   0.07   24.8     0   14.9   308    19.4   1013.5    0.00 
 201    6:00   0.08   24.6     0   15.7   309    20.5   1013.5    0.00 
 201    6:10   0.11   24.3     0   15.8   307    20.0   1013.9    0.00 
 201    6:20   0.13   23.6     0   17.4   305    23.8   1013.9    0.00 
 201    6:30   0.16   23.7     0   17.9   303    24.3   1013.9    0.00 
 201    6:40   0.19   24.1     0   17.0   303    21.5   1013.9    0.00 
 201    6:50   0.22   24.7     0   15.7   306    20.8   1014.2    0.00 
 201    7:00   0.25   25.3     0   14.9   310    20.7   1014.2    0.00 
 201    7:10   0.28   26.1     0   15.9   310    20.2   1014.2    0.00 
 201    7:20   0.31   26.8     0   15.6   310    20.9   1014.2    0.00 
 201    7:30   0.34   27.7     0   15.0   311    20.2   1014.2    0.00 
 201    7:40   0.37   28.7     0   15.6   310    21.0   1014.2    0.00 
 201    7:50   0.40   29.7     1   16.6   312    21.3   1014.6    0.00 
 201    8:00   0.43   30.7     1   16.4   314    22.9   1014.6    0.00 
 201    8:10   0.46   31.7     1   16.1   313    20.4   1014.9    0.00 
 201    8:20   0.48   33.1     1   14.6   309    19.6   1014.9    0.00 
 201    8:30   0.51   34.7     1   16.4   306    23.5   1014.9    0.00 
 201    8:40   0.54   36.1     1   16.2   304    20.8   1014.9    0.00 
 201    8:50   0.57   37.7     1   15.2   306    19.7   1014.9    0.00 
 201    9:00   0.59   39.0     1   16.5   309    20.5   1015.2    0.00 
 201    9:10   0.62   40.0     1   17.2   309    22.7   1015.2    0.00 
 201    9:20   0.64   40.9     4   16.6   309    22.5   1015.2    0.00 
 201    9:30   0.67   42.1    86   16.6   313    21.8   1015.2    0.00 
 201    9:40   0.69   43.2   100   17.1   312    21.5   1015.6    0.00 
 201    9:50   0.71   44.6   100   16.7   308    23.1   1015.6    0.00 
 201   10:00   0.73   45.7   100   18.0   305    23.2   1015.6    0.00 
 201   10:10   0.75   47.1    96   17.0   309    22.4   1015.6    0.00 
 201   10:20   0.77   47.9    92   17.4   313    22.8   1015.6    0.00 
 201   10:30   0.79   48.5    90   17.2   310    23.5   1015.6    0.00 
 201   10:40   0.81   49.6    87   18.0   308    23.8   1015.6    0.00 
 201   10:50   0.81   50.8    83   18.5   306    24.0   1015.6    0.00 
 201   11:00   0.83   51.2    81   20.5   303    27.7   1015.6    0.00 

Return to Bodega Marine Reserve graphs page.


Western Regional Climate Center,wrcc@dri.edu